www.pogodaiklimat.ru
Время
и дата
22:51 18.10
23:51 18.10
00:51 19.10
01:51 19.10
02:51 19.10
03:51 19.10
04:51 19.10
05:51 19.10
06:51 19.10
07:51 19.10
08:51 19.10
09:51 19.10
10:51 19.10
11:51 19.10
12:51 19.10
13:51 19.10
14:51 19.10
15:51 19.10
16:51 19.10
17:51 19.10
18:51 19.10
19:51 19.10
20:51 19.10
21:51 19.10
22:51 19.10
23:51 19.10
00:51 20.10
01:51 20.10
02:51 20.10
03:51 20.10
04:51 20.10
05:51 20.10
06:51 20.10
07:51 20.10
08:51 20.10
09:51 20.10
10:51 20.10
11:51 20.10
12:51 20.10
13:51 20.10
14:51 20.10
15:51 20.10
16:51 20.10
17:51 20.10
18:51 20.10
19:08 20.10
19:28 20.10
19:51 20.10
Ветер
(напр.,м/с)
Видим. Явления Облачность Т
(С)
Тd
(С)
f
(%)
Тe
(С)
Тes
(С)
Комфортность P
(гПа)
Po
(гПа)
Тmin
(С)
Tmax
(С)
R
(мм)
R24
(мм)
S
(см)
Ю 1 16 км ясно +13.3 +6.7 64 +12 +12 1018.0 993.9
Ю 1 16 км ясно +12.8 +7.2 69 +12 +12 1018.1 993.9 +12.8 +18.3
ЮЗ 2 16 км ясно +13.3 +7.8 69 +12 +12 1018.3 994.2
ЮЗ 2 16 км ясно +13.3 +7.8 69 +11 +11 1018.5 994.2
ЮЗ 2 16 км ясно +12.8 +7.8 72 +11 +11 1018.6 994.2
ЮЗ 1 16 км ясно +12.2 +7.8 74 +11 +11 1018.9 994.6
ЮЗ 2 16 км 2/0 5400 м
[Ac]
+11.7 +7.8 77 +10 +10 1019.4 994.9
ЮЗ 1 16 км 2/0 7500 м
[Ci]
+11.1 +7.8 80 +9 +9 1019.3 994.9 +11.1 +13.3
ЮЗ 1 16 км 2/0 7500 м
[Ci]
+11.7 +7.8 77 +11 +11 1019.4 995.2
ЮЗ 2 16 км 2/0 7500 м
[Ci]
+13.3 +8.3 72 +12 +12 1020.0 995.5
Ю 1 16 км 5/0 7500 м
[Ci]
+15.6 +8.9 64 +15 +16 1019.8 995.5
ЮЗ 1 16 км 5/0 5400 м
[Ac Ci]
+18.3 +9.4 56 +19 +21 1019.6 995.2
ЮЗ 1 16 км 5/0 3300 м
[Ac Ci]
+20.0 +9.4 50 +22 +25 комфорт 1019.3 994.9
ЮЗ 1 16 км 8/0 4500 м
[Ac Ci]
+20.6 +8.9 47 +22 +27 комфорт 1018.6 994.6 +11.1 +21.1
ЮЗ 2
{4}
16 км 8/2 1500 м
[Ci]
+21.1 +8.3 44 +22 +24 комфорт 1018.1 993.9
Ю 3
{4}
16 км 8/0 2400 м
[Ac Ci]
+21.1 +6.7 39 +22 +24 комфорт 1017.5 993.2
ЮЗ 3
{4}
16 км 2/0 2400 м
[Ac Ci]
+21.7 +6.7 38 +22 +24 комфорт 1017.2 992.9
Ю 2 16 км 2/0 3000 м
[Ac Ci]
+20.6 +6.1 39 +22 +23 комфорт 1017.1 992.9
Ю 2 16 км 2/0 3000 м
[Ac]
+19.4 +6.7 44 +20 +20 1017.4 993.2
Ю 2 16 км 2/0 3000 м
[Ac]
+18.3 +6.7 47 +18 +18 1017.8 993.6 +17.8 +21.7
Ю 1 16 км ясно +16.1 +6.7 54 +16 +16 1017.8 993.2
Ю 1 16 км ясно +15.6 +6.7 55 +15 +15 1017.7 993.6
Ю 1 16 км 2/0 4500 м
[Ac]
+15.0 +6.7 58 +14 +14 1018.0 993.9
Ю 1 16 км 5/0 4500 м
[Ac]
+13.9 +7.2 64 +13 +13 1018.3 993.9
Ю 1 16 км 2/0 4500 м
[Ac]
+13.3 +7.2 67 +12 +12 1018.2 993.9
Ю 1 16 км 8/0 4500 м
[Ac Ci]
+13.9 +7.2 64 +13 +13 1018.0 993.9 +13.3 +18.3
Ю 1 16 км 8/0 3900 м
[Ac Ci]
+13.3 +7.8 69 +12 +12 1018.0 993.9
ЮЗ 1 16 км 5/0 4200 м
[Ac Ci]
+13.3 +7.8 69 +12 +12 1018.0 993.9
ЮЗ 2 16 км 5/0 4800 м
[Ac Ci]
+12.8 +7.8 72 +11 +11 1018.1 993.9
ЮЗ 1 16 км 2/0 3300 м
[Ac]
+12.8 +7.8 72 +11 +11 1018.0 993.9
ЮЗ 1 16 км 2/0 3300 м
[Ac]
+12.8 +8.3 74 +11 +11 1018.2 993.9
Ю 1 16 км 2/0 3000 м
[Ac]
+12.2 +8.3 77 +11 +11 1018.0 993.6 +12.2 +14.4
Ю 1 16 км 2/0 3000 м
[Ac]
+12.2 +8.3 77 +11 +11 1017.9 993.6
ЮЗ 1 16 км 2/0 3000 м
[Ac Ci]
+14.4 +8.9 70 +14 +14 1018.3 993.9
Ю 2 16 км 2/0 3000 м
[Ac Ci]
+16.7 +9.4 62 +16 +17 1017.6 993.2
ЮЗ 2 16 км 2/0 3000 м
[Ac Ci]
+18.3 +9.4 56 +18 +20 1017.0 992.9
ЮЗ 1 16 км 5/2 1500 м
[Ac Ci]
+19.4 +10.0 55 +21 +24 комфорт 1016.5 992.2
Ю 2 16 км 8/0 3300 м
[Ac Ci]
+20.0 +10.6 55 +22 +24 комфорт 1015.5 991.2 +11.7 +20.0
Ю 3 16 км 8/2 1350 м
[Ac Ci]
+20.0 +10.6 55 +21 +23 комфорт 1014.3 990.3
Ю 3
{4}
16 км 8/0 2400 м
[Ac Ci]
+21.7 +10.0 47 +23 +25 комфорт 1013.3 989.3
Ю 3
{4}
16 км 8/2 1800 м
[Ac Ci]
+21.7 +10.0 47 +23 +24 комфорт 1012.5 988.6
Ю 2 16 км 8/0 2400 м
[Ac Ci]
+22.2 +10.0 46 +24 +25 комфорт 1012.1 987.9
ЮЗ 1 16 км 5/2 1800 м
[Ac Ci Cb]
+21.1 +10.6 51 +23 +23 комфорт 1012.2 988.3
Ю 2 16 км 5/2 1800 м
[Ac Ci Cb]
+19.4 +10.6 57 +20 +20 1012.2 987.9 +18.9 +22.2
Ю 2 16 км гроза 8/5 1350 м
[Ac]
+20.0 +10.0 53 +21 +21 комфорт 1011.6 987.6
Ю 2
{4}
0 м гроза 10/8 1410 м
[Ac]
+20.0 +10.0 53 +21 +21 комфорт 987.3
Ю 2
{4}
16 км 10/10 1410 м
[Cb]
+20.0 +10.6 55 +21 +21 комфорт 986.9
Ю 2 16 км 10/10 1350 м +20.0 +11.1 57 +21 +21 комфорт 1010.9 986.9
Местоположение метеостанции Chicago-O`Hare International Airport: широта 41.9797 долгота -87.9044 высота над уровнем моря 203 м.
В архиве по умолчанию представлена погода в Чикаго за последние 1-2 суток. Обновление информации о фактической погоде в базе происходит ежечасно! Архивные данные за месяц целиком и за предыдущие месяцы Вы можете получить, выбрав интересующий диапазон дат из раскрывающегося списка и нажав кнопку "Ввод!".
Внимание! Архив погоды МЕТАР в базе сайта по станциям, не включенным в климатический монитор, хранится не более 60 дней. Нет смысла пытаться выбрать более раннюю дату.
*Определитесь, кто Вы:
Внимание! Время в таблицах - местное (без учета летнего времени). Для получения всемирного времени необходимо вычесть поправку, которая равна -6 ч.
Смотрите также архив погоды в соседних городах и на ближайших метеорологических станциях:
Партнеры нашего сайта:      
Пояснения к столбцам:
  • Ветер - указаны скорость ветра в м/с - средняя за 10 мин, порывы в срок и между сроками (в фигурных скобках) и направление, откуда дует ветер: С - северный,
  • СВ - северо-восточный, В - восточный, ЮВ - юго-восточный, Ю - южный, ЮЗ - юго-западный, З - западный, СЗ - северо-западный.
  • Видимость - горизонтальная дальность видимости в метрах или километрах. При видимости от 1 до 10 км при отсутствии осадков обычно наблюдается дымка, при ухудшении видимости до 1 км и менее - туман. В сухую погоду видимость может ухудшаться дымом, пылью или мглою.
  • Явления - указаны атмосферные явления, наблюдавшиеся в срок или в последний час перед сроком; фигурными скобками обозначены явления, наблюдавшиеся между сроками (за 1-3 часа до срока); квадратными скобками обозначены град или гололедные отложения с указанием их диаметра в мм.
  • Облачность - указаны через наклонную черту общая и нижняя облачность в баллах и высота нижней границы облаков в метрах; квадратными скобками обозначены формы облаков: Ci - перистые, Cs - перисто-слоистые, Cc - перисто-кучевые, Ac - высококучевые, As - высокослоистые, Sc - слоисто-кучевые, Ns - слоисто-дождевые, Cu - кучевые, Cb - кучево-дождевые. Подробнее классификацию облаков см. в Атласе облаков (PDF).
  • T - Температура воздуха - температура, измеренная на высоте 2 м над землей.
  • Td - Температура точки росы - температура, при понижении до которой содержащийся в воздухе водяной пар достигнет насыщения.
  • f - Относительная влажность воздуха - влажноcть воздуха, измеренная на высоте 2 м над землей.
  • Te - Эффективная температура - температура, которую ощущает одетый по сезону человек в тени. Характеристика душности погоды. При расчете учитывается влияние влажности воздуха и скорости ветра на теплоощущения человека.
  • Tes - Эффективная температура на солнце - температура, которую ощущает человек, с поправкой на солнечный нагрев. Характеристика знойности погоды. Зависит от высоты солнца над горизонтом, облачности и скорости ветра. Ночью, в пасмурную погоду, а также при ветре 12 м/с и более поправка равна нулю.
  • P - Атмосферное давление - приведенное к уровню моря атмосферное давление.
  • Po - Атмосферное давление - измеренное на уровне метеостанции атмосферное давление.
  • Tmin - Минимальная температура - минимум температуры воздуха на высоте 2 м над землей.
  • Tmax - Максимальная температура - максимум температуры воздуха на высоте 2 м над землей.
  • R - Количество осадков - Количество выпавших осадков за период времени, мм. При наведении курсора мыши на число - период времени, за который выпало указанное количество осадков.
  • R24 - Количество осадков - Количество выпавших осадков за 24 часа, мм.
  • S - Снежный покров - Высота снежного покрова, см. При наведении курсора мыши на число - состояние снежного покрова и степень покрытия местности в баллах.